Simultaneous Nadir Overpasses (SNOs) Predictions

Prediction of SNOs between AURA and NPP Satellite Orbit:

Table of predicted SNOs for the next 14.0 days since TLE Epoch: 6/3/2023
Index Date (AURA) Time (AURA) Lat,Lon (AURA) SZA (AURA ) Date (NPP) Time (NPP) Lat,Lon (NPP) SZA (NPP ) Distance(km) Time Diff (sec)
1 06/04/2023 20:13:29 79.64, 135.05 69.91 06/04/2023 20:12:43 79.64, 135.01 69.95 0.82 46
2 06/04/2023 21:02:48 -79.91, -55.31 110.51 06/04/2023 21:03:20 -79.91, -55.26 110.54 0.92 32
3 06/07/2023 11:39:32 -79.63, 83.40 110.32 06/07/2023 11:38:51 -79.62, 83.28 110.27 2.42 41
4 06/07/2023 12:28:50 79.89,-106.98 69.28 06/07/2023 12:29:27 79.88,-107.05 69.26 1.63 37
5 06/10/2023 03:05:32 79.68, 32.30 69.39 06/10/2023 03:04:56 79.68, 32.28 69.42 0.39 36
6 06/10/2023 03:54:51 -79.95,-158.01 111.03 06/10/2023 03:55:33 -79.95,-157.95 111.07 1.13 42
7 06/12/2023 18:31:33 -79.72, -18.94 110.82 06/12/2023 18:31:03 -79.72, -18.94 110.80 0.26 30
8 06/12/2023 19:20:51 79.97, 150.67 68.78 06/12/2023 19:21:39 79.97, 150.76 68.73 1.62 48
9 06/15/2023 09:57:32 79.74, -70.24 69.03 06/15/2023 09:57:09 79.74, -70.29 69.06 1.13 23



Historial Predications of SNOs between AURA and NPP
